Weather History for Oakes, ND

Change the Weather History Date:

Friday, October 25, 2013

  Actual Average (KABR) Record (KABR)
Temperature  
Mean Temperature 42 °F 41 °F  
Max Temperature 62 °F 53 °F 81 °F (1989)
Min Temperature 23 °F 29 °F 10 °F (1942)
Degree Days  
Heating Degree Days 22 24  
Month to date heating degree days 463  
Since 1 July heating degree days 737  
Cooling Degree Days 0 0  
Month to date cooling degree days 0  
Year to date cooling degree days 523  
Moisture  
Dew Point 32 °F    
Average Humidity 77    
Maximum Humidity 100    
Minimum Humidity 45    
Precipitation  
Precipitation 0.00 in 0.06 in 0.67 in (1956)
Month to date precipitation 1.72  
Year to date precipitation 20.20  
Snow  
Snow 0.00 in - - ()
Month to date snowfall  
Since 1 July snowfall  
Snow Depth -    
Sea Level Pressure  
Sea Level Pressure 30.01 in    
Wind  
Wind Speed 12 mph (SW)    
Max Wind Speed 23 mph    
Max Gust Speed 31 mph    
Visibility 10 miles    
Events      
T = Trace of Precipitation, MM = Missing Value Source: NWS Daily Summary

Daily Weather History Graph

Daily Weather History Graph

Search for Another Location

Airport:

Trip Planner

Search our weather history database for the weather conditions in past years. The results will help you decide how hot, cold, wet, or windy it might be!

Date:

Astronomy

Oct. 25, 2013 Rise Set
Actual Time 8:03 AM CDT 6:28 PM CDT
Civil Twilight 7:32 AM CDT 6:59 PM CDT
Nautical Twilight 6:57 AM CDT 7:34 PM CDT
Astronomical Twilight 6:23 AM CDT 8:08 PM CDT
Moon 11:44 PM CDT (10/25) 1:50 PM CDT (10/25)
Length of Visible Light 11h 26m
Length of Day
10h 24m
Waning Gibbous, 62% of the Moon is Illuminated
Oct 25
Waning Gibbous
Oct 26
Last Quarter
Nov 3
New
Nov 9
First Quarter
Nov 17
Full

Hourly Weather History & Observations

Time (CDT) Temp. Windchill Dew Point Humidity Pressure Visibility Wind Dir Wind Speed Gust Speed Precip Events Conditions
12:15 AM 24.8 °F 16.9 °F 24.8 °F 100% 30.29 in 10.0 mi SSW 6.9 mph - N/A   Clear
12:35 AM 24.8 °F 17.9 °F 24.8 °F 100% 30.28 in 10.0 mi South 5.8 mph - N/A   Clear
12:55 AM 23.0 °F 15.8 °F 23.0 °F 100% 30.28 in 10.0 mi SSW 5.8 mph - N/A   Clear
1:15 AM 23.0 °F 14.7 °F 23.0 °F 100% 30.27 in 10.0 mi South 6.9 mph - N/A   Clear
1:35 AM 23.0 °F 13.9 °F 23.0 °F 100% 30.27 in 10.0 mi SSW 8.1 mph - N/A   Clear
1:55 AM 24.8 °F 16.1 °F 24.8 °F 100% 30.26 in 10.0 mi South 8.1 mph - N/A   Clear
2:15 AM 24.8 °F 16.1 °F 24.8 °F 100% 30.25 in 10.0 mi SSW 8.1 mph - N/A   Clear
2:35 AM 24.8 °F 16.1 °F 24.8 °F 100% 30.25 in 10.0 mi South 8.1 mph - N/A   Clear
2:55 AM 24.8 °F 16.1 °F 24.8 °F 100% 30.24 in 10.0 mi SSW 8.1 mph - N/A   Clear
3:15 AM 24.8 °F 16.1 °F 24.8 °F 100% 30.23 in 10.0 mi SSW 8.1 mph - N/A   Clear
3:35 AM 24.8 °F 15.3 °F 24.8 °F 100% 30.22 in 10.0 mi South 9.2 mph - N/A   Clear
3:55 AM 26.6 °F 16.2 °F 26.6 °F 100% 30.21 in 10.0 mi South 11.5 mph - N/A   Clear
4:15 AM 26.6 °F 16.2 °F 26.6 °F 100% 30.19 in 10.0 mi South 11.5 mph - N/A   Clear
4:35 AM 26.6 °F 15.2 °F 26.6 °F 100% 30.18 in 10.0 mi SSW 13.8 mph 18.4 mph N/A   Clear
4:55 AM 26.6 °F 17.5 °F 26.6 °F 100% 30.18 in 10.0 mi SSW 9.2 mph - N/A   Clear
5:15 AM 26.6 °F 16.8 °F 26.6 °F 100% 30.18 in 10.0 mi SSW 10.4 mph - N/A   Clear
5:35 AM 26.6 °F 16.8 °F 26.6 °F 100% 30.16 in 10.0 mi SSW 10.4 mph - N/A   Clear
5:55 AM 26.6 °F 15.7 °F 26.6 °F 100% 30.14 in 10.0 mi South 12.7 mph - N/A   Clear
6:15 AM 26.6 °F 15.2 °F 26.6 °F 100% 30.13 in 10.0 mi South 13.8 mph - N/A   Clear
6:35 AM 26.6 °F 16.2 °F 26.6 °F 100% 30.12 in 10.0 mi South 11.5 mph - N/A   Clear
6:55 AM 26.6 °F 14.7 °F 26.6 °F 100% 30.10 in 10.0 mi South 15.0 mph - N/A   Clear
7:15 AM 26.6 °F 14.7 °F 26.6 °F 100% 30.09 in 10.0 mi South 15.0 mph 19.6 mph N/A   Clear
7:35 AM 26.6 °F 15.2 °F 26.6 °F 100% 30.08 in 10.0 mi SSW 13.8 mph 19.6 mph N/A   Clear
7:55 AM 26.6 °F 14.7 °F 26.6 °F 100% 30.07 in 10.0 mi South 15.0 mph 19.6 mph N/A   Clear
8:15 AM 26.6 °F 15.7 °F 26.6 °F 100% 30.06 in 10.0 mi South 12.7 mph 18.4 mph N/A   Clear
8:35 AM 28.4 °F 17.5 °F 26.6 °F 93% 30.06 in 10.0 mi South 13.8 mph - N/A   Clear
8:55 AM 28.4 °F 18.0 °F 26.6 °F 93% 30.06 in 10.0 mi South 12.7 mph - N/A   Clear
9:15 AM 30.2 °F 20.2 °F 28.4 °F 93% 30.05 in 10.0 mi SSW 12.7 mph - N/A   Clear
9:35 AM 32.0 °F 22.1 °F 28.4 °F 87% 30.04 in 10.0 mi South 13.8 mph - N/A   Clear
9:55 AM 32.0 °F 20.5 °F 28.4 °F 87% 30.03 in 10.0 mi South 18.4 mph 23.0 mph N/A   Clear
10:15 AM 32.0 °F 21.6 °F 30.2 °F 93% 30.01 in 10.0 mi South 15.0 mph 20.7 mph N/A   Clear
10:35 AM 35.6 °F 25.9 °F 32.0 °F 87% 30.00 in 10.0 mi SSW 16.1 mph 21.9 mph N/A   Clear
10:55 AM 37.4 °F 26.9 °F 32.0 °F 81% 29.98 in 10.0 mi SSW 20.7 mph 25.3 mph N/A   Clear
11:15 AM 39.2 °F 30.5 °F 32.0 °F 75% 29.97 in 10.0 mi SSW 16.1 mph 24.2 mph N/A   Clear
11:35 AM 41.0 °F 31.4 °F 35.6 °F 81% 29.94 in 10.0 mi SSW 21.9 mph 27.6 mph N/A   Clear
11:55 AM 44.6 °F 36.1 °F 35.6 °F 71% 29.93 in 10.0 mi SSW 21.9 mph 26.5 mph N/A   Clear
12:15 PM 46.4 °F 38.7 °F 35.6 °F 66% 29.91 in 10.0 mi SSW 20.7 mph 28.8 mph N/A   Clear
12:35 PM 46.4 °F 38.7 °F 35.6 °F 66% 29.90 in 10.0 mi SSW 20.7 mph 31.1 mph N/A   Clear
12:55 PM 48.2 °F - 37.4 °F 66% 29.89 in 10.0 mi SSW 20.7 mph 29.9 mph N/A   Clear
1:15 PM 51.8 °F - 39.2 °F 62% 29.88 in 10.0 mi SSW 17.3 mph 23.0 mph N/A   Clear
1:35 PM 53.6 °F - 39.2 °F 58% 29.86 in 10.0 mi SSW 23.0 mph 28.8 mph N/A   Clear
1:55 PM 53.6 °F - 39.2 °F 58% 29.86 in 10.0 mi SSW 20.7 mph 25.3 mph N/A   Clear
2:15 PM 57.2 °F - 41.0 °F 55% 29.85 in 10.0 mi SW 20.7 mph 29.9 mph N/A   Clear
2:35 PM 59.0 °F - 41.0 °F 51% 29.84 in 10.0 mi WSW 17.3 mph 21.9 mph N/A   Clear
2:55 PM 62.6 °F - 41.0 °F 45% 29.84 in 10.0 mi West 18.4 mph 26.5 mph N/A   Clear
3:15 PM 59.0 °F - 42.8 °F 55% 29.84 in 10.0 mi West 13.8 mph - N/A   Clear
3:35 PM 60.8 °F - 41.0 °F 48% 29.83 in 10.0 mi West 19.6 mph 25.3 mph N/A   Clear
3:55 PM 60.8 °F - 41.0 °F 48% 29.83 in 10.0 mi WNW 20.7 mph - N/A   Clear
4:15 PM 59.0 °F - 41.0 °F 51% 29.85 in 10.0 mi WNW 23.0 mph - N/A   Clear
4:35 PM 59.0 °F - 39.2 °F 48% 29.85 in 10.0 mi WNW 18.4 mph 25.3 mph N/A   Clear
4:55 PM 59.0 °F - 39.2 °F 48% 29.84 in 10.0 mi West 19.6 mph 24.2 mph N/A   Clear
5:15 PM 59.0 °F - 39.2 °F 48% 29.84 in 10.0 mi WNW 17.3 mph 23.0 mph N/A   Clear
5:35 PM 57.2 °F - 39.2 °F 51% 29.85 in 10.0 mi WNW 13.8 mph 20.7 mph N/A   Clear
5:55 PM 55.4 °F - 37.4 °F 51% 29.85 in 10.0 mi WNW 13.8 mph - N/A   Clear
6:15 PM 53.6 °F - 37.4 °F 54% 29.85 in 10.0 mi West 11.5 mph - N/A   Clear
6:35 PM 50.0 °F - 37.4 °F 62% 29.86 in 10.0 mi West 9.2 mph - N/A   Clear
6:55 PM 48.2 °F - 37.4 °F 66% 29.87 in 10.0 mi West 6.9 mph - N/A   Clear
7:15 PM 46.4 °F - 37.4 °F 71% 29.87 in 10.0 mi Calm Calm - N/A   Clear
7:35 PM 46.4 °F 41.5 °F 37.4 °F 71% 29.88 in 10.0 mi West 10.4 mph - N/A   Clear
7:55 PM 48.2 °F - 37.4 °F 66% 29.88 in 10.0 mi West 11.5 mph - N/A   Clear
8:15 PM 48.2 °F - 35.6 °F 62% 29.89 in 10.0 mi WNW 11.5 mph - N/A   Clear
8:35 PM 46.4 °F 39.8 °F 35.6 °F 66% 29.91 in 10.0 mi WNW 16.1 mph - N/A   Clear
8:55 PM 48.2 °F - 33.8 °F 58% 29.91 in 10.0 mi WNW 13.8 mph - N/A   Clear
9:15 PM 48.2 °F - 32.0 °F 54% 29.92 in 10.0 mi NW 15.0 mph 20.7 mph N/A   Clear
9:35 PM 46.4 °F 39.8 °F 32.0 °F 57% 29.93 in 10.0 mi NW 16.1 mph - N/A   Clear
9:55 PM 46.4 °F 40.1 °F 32.0 °F 57% 29.94 in 10.0 mi NW 15.0 mph 21.9 mph N/A   Clear
10:15 PM 44.6 °F 38.4 °F 32.0 °F 61% 29.96 in 10.0 mi NW 12.7 mph - N/A   Clear
10:35 PM 44.6 °F 37.8 °F 32.0 °F 61% 29.97 in 10.0 mi NW 15.0 mph 19.6 mph N/A   Clear
10:55 PM 42.8 °F 35.4 °F 32.0 °F 66% 29.97 in 10.0 mi NW 15.0 mph 20.7 mph N/A   Clear
11:15 PM 41.0 °F 33.5 °F 32.0 °F 70% 29.98 in 10.0 mi NW 13.8 mph 18.4 mph N/A   Clear
11:35 PM 41.0 °F 34.7 °F 32.0 °F 70% 29.99 in 10.0 mi WNW 10.4 mph - N/A   Clear
11:55 PM 39.2 °F 32.5 °F 32.0 °F 75% 30.00 in 10.0 mi NW 10.4 mph - N/A   Clear